Location: Unspecified
(29.9680°N, 0.0000°E)
Time: 20:45:35
(UTC+00:00)

A-11 Canister half - Pass Details

Date: 26 June 2019
Orbit: 1526 x 1683 km, 47.3° (Epoch: 17 July)

Event Time Altitude Azimuth Distance (km) Brightness Sun altitude
Rises 03:17:34 0° 244° (WSW) 4,804 - -19.1°
Reaches altitude 10° 03:20:47 10° 248° (WSW) 3,798 - -18.6°
Exits shadow 03:23:20 20° 254° (WSW) 3,039 10.0 -18.2°
Maximum altitude 03:30:12 58° 326° (NNW) 1,773 9.3 -17.0°
Drops below altitude 10° 03:39:25 10° 45° (NE) 3,706 12.4 -15.5°
Sets 03:42:32 0° 49° (NE) 4,682 13.5 -15.0°
